Weather in Bolshoy Nimnyr

Russia / Sakha (Yakutia) Republic     58°04′54″N   125°03′44″E
temp.,
°C
wind,
m/s
gust,
m/s
humid.,
%
clouds,
%
prec.,
mm/h
press.,
hPa
HPBL,
m
26 february, fri
fri2600:00−32sse11100100 0.0 103519
03:00−33sse119997 0.1 103519
06:00−33sse229878 0.0 103719
09:00−31se229144 0.0 103644
12:00−23s23820 0.0 1034414
15:00−21s357911 0.0 1030431
18:00−27se44840 0.0 103046
21:00−26sse348223 0.0 103051
27 february, sat
sat2700:00−23s3793100 0.0 1028196
03:00−22s31090100 0.3 1027315
06:00−22sse3393100 0.1 102666
09:00−21sse2588100 0.1 1024229
12:00−18sse3592100 0.6 1021614
15:00−17s2393100 1.4 1017457
18:00−18nw2398100 0.9 1017126
21:00−22nw5999100 1.7 1019644
28 february, sun
sun2800:00−25wnw4999100 0.5 1020481
03:00−27wnw41099100 0.8 1022502
06:00−28nw41199100 0.3 1025719
09:00−28nw51197100 0.5 1027982
12:00−25nw71194100 0.3 10281288
15:00−25nw71192100 0.6 10291454
18:00−27wnw41098100 0.3 1032935
21:00−28wnw39100100 0.4 1034454
1 march, mon
mon100:00−30wnw23100100 0.1 103453
03:00−31w22100100 0.3 103520
06:00−31wsw22100100 0.1 103620
09:00−31wsw2399100 0.2 1036151
12:00−28wnw4690100 0.1 1035912
15:00−27wnw4688100 0.2 10341116
18:00−29wnw3599100 0.1 1034107
21:00−32w11100100 0.1 103519
2 march, tue
tue200:00−33ssw11100100 0.1 103519
03:00−35ssw11100100 0.1 103519
06:00−35s12100100 0.0 103519
09:00−34s2296100 0.1 103544
12:00−29wsw2286100 0.0 1032585
15:00−28wnw2379100 0.0 10301020
18:00−31nw1197100 0.1 103119
21:00−35se129996 0.1 103219